West Palm Beach, FL

10:49 AM EST on December 14, 2019 (GMT -0500)
Palm Beach International

Weather History for KPBI - October, 2019

Change the Weather History Date:

Saturday, October 5, 2019

  Actual Average Record
Temperature  
Mean Temperature 83 °F 80 °F  
Max Temperature 88 °F 87 °F 92 °F (1964)
Min Temperature 78 °F 74 °F 63 °F (1897)
Degree Days  
Heating Degree Days 0 0  
Month to date heating degree days 0 0  
Since 1 July heating degree days 0 0  
Cooling Degree Days 18 15  
Month to date cooling degree days 89 77  
Year to date cooling degree days 3798 3285  
Growing Degree Days 33 (Base 50)    
Moisture  
Dew Point 73 °F    
Average Humidity 69    
Maximum Humidity 79    
Minimum Humidity 59    
Precipitation  
Precipitation 0.05 in 0.20 in 7.10 in (1948)
Month to date precipitation 0.05 1.02  
Year to date precipitation 45.40 50.09  
Snow  
Snow 0.00 in - - ()
Month to date snowfall 0.0  
Since 1 July snowfall 0.0  
Since 1 September snowfall 0.0  
Snow Depth 0.00 in    
Sea Level Pressure  
Sea Level Pressure 29.95 in    
Wind  
Wind Speed 12 mph (ENE)    
Max Wind Speed 22 mph    
Max Gust Speed 27 mph    
Visibility 10 miles    
Events Rain    
T = Trace of Precipitation, MM = Missing Value Source: NWS Daily Summary

Daily Weather History Graph

Daily Weather History Graph

Search for Another Location

Airport or City:

Astronomy

Oct. 05, 2019 Rise Set
Actual Time 7:14 AM EDT 7:02 PM EDT
Civil Twilight 6:51 AM EDT 7:25 PM EDT
Nautical Twilight 6:24 AM EDT 7:52 PM EDT
Astronomical Twilight 5:57 AM EDT 8:19 PM EDT
Moon 2:09 PM EDT (10/5) 12:01 AM EDT (10/5)
Length of Visible Light 12h 34m
Length of Day
11h 47m
Waxing Crescent, 50% of the Moon is Illuminated
Oct 5
Waxing Crescent
Oct 5
First Quarter
Oct 13
Full
Oct 21
Last Quarter
Oct 27
New

Hourly Weather History & Observations

Time (EDT) Temp. Heat Index Dew Point Humidity Pressure Visibility Wind Dir Wind Speed Gust Speed Precip Events Conditions
12:53 AM 82.0 °F 86.7 °F 72.0 °F 71% 29.96 in 10.0 mi ENE 6.9 mph - N/A   Partly Cloudy
1:53 AM 81.0 °F 85.8 °F 73.0 °F 77% 29.96 in 10.0 mi ENE 5.8 mph - N/A   Partly Cloudy
2:53 AM 81.0 °F 85.8 °F 73.0 °F 77% 29.93 in 10.0 mi ENE 8.1 mph - N/A   Partly Cloudy
3:53 AM 81.0 °F 85.8 °F 73.0 °F 77% 29.91 in 10.0 mi NE 5.8 mph - N/A   Partly Cloudy
4:53 AM 80.1 °F 84.2 °F 73.0 °F 79% 29.91 in 10.0 mi ENE 4.6 mph - N/A   Partly Cloudy
5:53 AM 80.1 °F 83.8 °F 72.0 °F 76% 29.93 in 10.0 mi ENE 3.5 mph - N/A   Partly Cloudy
6:53 AM 80.1 °F 84.5 °F 73.9 °F 81% 29.94 in 10.0 mi East 8.1 mph - 0.01 in   Scattered Clouds
7:53 AM 80.1 °F 84.5 °F 73.9 °F 81% 29.95 in 10.0 mi East 8.1 mph 24.2 mph 0.03 in   Mostly Cloudy
8:53 AM 82.0 °F 87.9 °F 73.9 °F 76% 29.96 in 10.0 mi East 10.4 mph - N/A   Mostly Cloudy
9:49 AM 84.2 °F 90.9 °F 73.4 °F 70% 29.98 in 8.0 mi NE 13.8 mph - 0.00 in Rain Light Rain
9:53 AM 82.0 °F 88.6 °F 75.0 °F 79% 29.99 in 8.0 mi ENE 10.4 mph - 0.00 in Rain Light Rain
10:53 AM 86.0 °F 93.8 °F 73.9 °F 67% 29.99 in 10.0 mi East 13.8 mph - 0.01 in   Mostly Cloudy
11:53 AM 86.0 °F 93.0 °F 73.0 °F 65% 30.00 in 10.0 mi East 18.4 mph - N/A   Mostly Cloudy
12:10 PM 86.0 °F 93.0 °F 73.0 °F 65% 29.99 in 10.0 mi ENE 16.1 mph 24.2 mph N/A   Mostly Cloudy
12:53 PM 87.1 °F 94.5 °F 73.0 °F 63% 29.98 in 10.0 mi ENE 18.4 mph - N/A   Scattered Clouds
1:53 PM 88.0 °F 95.6 °F 73.0 °F 61% 29.96 in 10.0 mi East 15.0 mph - N/A   Mostly Cloudy
2:53 PM 87.1 °F 93.6 °F 72.0 °F 61% 29.94 in 10.0 mi East 20.7 mph - N/A   Scattered Clouds
3:53 PM 87.1 °F 94.5 °F 73.0 °F 63% 29.93 in 10.0 mi East 16.1 mph 26.5 mph N/A   Scattered Clouds
4:53 PM 86.0 °F 92.2 °F 72.0 °F 63% 29.93 in 10.0 mi ENE 17.3 mph - N/A   Scattered Clouds
5:53 PM 84.9 °F 90.1 °F 71.1 °F 63% 29.93 in 10.0 mi ENE 13.8 mph - N/A   Scattered Clouds
6:53 PM 82.9 °F 87.5 °F 71.1 °F 67% 29.94 in 10.0 mi ENE 17.3 mph - N/A   Scattered Clouds
7:53 PM 82.0 °F 86.3 °F 71.1 °F 69% 29.94 in 10.0 mi ENE 11.5 mph - N/A   Scattered Clouds
8:53 PM 82.0 °F 86.3 °F 71.1 °F 69% 29.96 in 10.0 mi East 13.8 mph - N/A   Scattered Clouds
9:53 PM 82.0 °F 86.3 °F 71.1 °F 69% 29.96 in 10.0 mi ENE 15.0 mph - N/A   Scattered Clouds
10:53 PM 81.0 °F 84.9 °F 71.1 °F 72% 29.97 in 10.0 mi East 15.0 mph 20.7 mph N/A   Scattered Clouds
11:53 PM 81.0 °F 84.4 °F 70.0 °F 69% 29.96 in 10.0 mi East 13.8 mph - N/A   Scattered Clouds